Weather History for KNEW - October, 2012

Change the Weather History Date:

Thursday, October 4, 2012

  Actual Average Record
Temperature  
Mean Temperature 76 °F 75 °F  
Max Temperature 85 °F 83 °F 92 °F (1986)
Min Temperature 66 °F 67 °F 49 °F (1974)
Degree Days  
Heating Degree Days 0 0  
Month to date heating degree days 0 0  
Since 1 July heating degree days 0 0  
Cooling Degree Days 11 10  
Month to date cooling degree days 29 42  
Year to date cooling degree days 3170 2731  
Growing Degree Days 30 (Base 50)    
Moisture  
Dew Point 68 °F    
Average Humidity 76    
Maximum Humidity 93    
Minimum Humidity 58    
Precipitation  
Precipitation 0.00 in 0.12 in 0.87 in (2009)
Month to date precipitation T 0.46  
Year to date precipitation 60.25 49.64  
Snow  
Snow 0.00 in - - ()
Month to date snowfall 0.0  
Since 1 July snowfall 0.0  
Since 1 September snowfall 0.0  
Snow Depth 0.00 in    
Sea Level Pressure  
Sea Level Pressure 30.15 in    
Wind  
Wind Speed 5 mph (East)    
Max Wind Speed 14 mph    
Max Gust Speed 17 mph    
Visibility 9 miles    
Events      
T = Trace of Precipitation, MM = Missing Value Source: NWS Daily Summary

Daily Weather History Graph

Daily Weather History Graph

Search for Another Location

Airport or City:

Trip Planner

Search our weather history database for the weather conditions in past years. The results will help you decide how hot, cold, wet, or windy it might be!

Date:

Astronomy

Oct. 04, 2012 Rise Set
Actual Time 6:55 AM CDT 6:41 PM CDT
Civil Twilight 6:31 AM CDT 7:05 PM CDT
Nautical Twilight 6:03 AM CDT 7:32 PM CDT
Astronomical Twilight 5:36 AM CDT 8:00 PM CDT
Moon 9:36 PM CDT (10/4) 10:53 AM CDT (10/4)
Length of Visible Light 12h 33m
Length of Day
11h 45m
Waning Gibbous, 82% of the Moon is Illuminated
Oct 4
Waning Gibbous
Oct 8
Last Quarter
Oct 15
New
Oct 21
First Quarter
Oct 29
Full

Hourly Weather History & Observations

Time (CDT) Temp. Heat Index Dew Point Humidity Pressure Visibility Wind Dir Wind Speed Gust Speed Precip Events Conditions
12:53 AM 75.0 °F - 66.9 °F 76% 30.11 in 10.0 mi ESE 4.6 mph - N/A   Clear
1:53 AM 75.0 °F - 66.9 °F 76% 30.12 in 10.0 mi ESE 4.6 mph - N/A   Clear
2:53 AM 75.0 °F - 68.0 °F 79% 30.12 in 9.0 mi ESE 4.6 mph - N/A   Clear
3:53 AM 75.9 °F - 70.0 °F 82% 30.12 in 8.0 mi East 4.6 mph - N/A   Clear
4:53 AM 75.9 °F - 70.0 °F 82% 30.14 in 9.0 mi East 8.1 mph - N/A   Clear
5:53 AM 75.9 °F - 70.0 °F 82% 30.15 in 8.0 mi East 9.2 mph - N/A   Clear
6:53 AM 75.0 °F - 69.1 °F 82% 30.17 in 8.0 mi East 11.5 mph - N/A   Clear
7:53 AM 75.0 °F - 69.1 °F 82% 30.17 in 5.0 mi East 10.4 mph - N/A   Haze
8:53 AM 77.0 °F - 70.0 °F 79% 30.19 in 7.0 mi ENE 10.4 mph - N/A   Clear
9:53 AM 79.0 °F - 69.1 °F 72% 30.20 in 8.0 mi ENE 9.2 mph - N/A   Clear
10:53 AM 81.0 °F 84.1 °F 69.1 °F 67% 30.20 in 9.0 mi NE 8.1 mph - N/A   Clear
11:53 AM 82.0 °F 86.3 °F 71.1 °F 69% 30.19 in 9.0 mi NE 9.2 mph - N/A   Partly Cloudy
12:53 PM 84.9 °F 87.6 °F 66.9 °F 55% 30.17 in 10.0 mi East 8.1 mph - N/A   Partly Cloudy
1:53 PM 84.9 °F 87.1 °F 66.0 °F 53% 30.16 in 10.0 mi East 6.9 mph - N/A   Clear
2:53 PM 86.0 °F 89.4 °F 68.0 °F 55% 30.14 in 10.0 mi ENE 9.2 mph - N/A   Partly Cloudy
3:53 PM 86.0 °F 88.2 °F 66.0 °F 51% 30.14 in 10.0 mi East 8.1 mph - N/A   Clear
4:53 PM 86.0 °F 87.3 °F 64.4 °F 48% 30.15 in 10.0 mi East 5.8 mph - N/A   Clear
5:53 PM 84.0 °F 86.5 °F 66.9 °F 56% 30.14 in 10.0 mi ESE 6.9 mph - N/A   Clear
6:53 PM 81.0 °F 84.1 °F 69.1 °F 67% 30.13 in 10.0 mi ESE 5.8 mph - N/A   Clear
7:53 PM 80.1 °F 82.7 °F 68.0 °F 67% 30.14 in 10.0 mi SE 5.8 mph - N/A   Clear
8:53 PM 78.1 °F - 69.1 °F 74% 30.14 in 10.0 mi SSE 3.5 mph - N/A   Clear
9:53 PM 77.0 °F - 68.0 °F 74% 30.15 in 10.0 mi SSE 4.6 mph - N/A   Clear
10:53 PM 77.0 °F - 66.9 °F 71% 30.15 in 10.0 mi SSE 3.5 mph - N/A   Clear
11:53 PM 75.9 °F - 68.0 °F 76% 30.14 in 10.0 mi SE 4.6 mph - N/A   Clear